Weather History for KPQL - January, 2013

Change the Weather History Date:

Wednesday, January 16, 2013

  Actual Average Record
Temperature  
Mean Temperature 48 °F -  
Max Temperature 55 °F 58 °F 76 °F (1950)
Min Temperature 41 °F 39 °F 24 °F (1972)
Degree Days  
Heating Degree Days 16    
Moisture  
Dew Point 46 °F    
Average Humidity 91    
Maximum Humidity 100    
Minimum Humidity 83    
Precipitation  
Precipitation 0.00 in - - ()
Sea Level Pressure  
Sea Level Pressure 30.01 in    
Wind  
Wind Speed 8 mph (NNW)    
Max Wind Speed 13 mph    
Max Gust Speed 20 mph    
Visibility 7 miles    
Events Rain    
Averages and records for this station are not official NWS values.
T = Trace of Precipitation, MM = Missing Value Source: NWS Daily Summary

Daily Weather History Graph

Daily Weather History Graph

Search for Another Location

Airport or City:

Trip Planner

Search our weather history database for the weather conditions in past years. The results will help you decide how hot, cold, wet, or windy it might be!

Date:

Astronomy

Jan. 16, 2013 Rise Set
Actual Time 6:51 AM CST 5:16 PM CST
Civil Twilight 6:25 AM CST 5:42 PM CST
Nautical Twilight 5:56 AM CST 6:12 PM CST
Astronomical Twilight 5:27 AM CST 6:41 PM CST
Moon 9:53 AM CST (1/16) 10:39 PM CST (1/16)
Length of Visible Light 11h 17m
Length of Day
10h 25m
Waxing Crescent, 28% of the Moon is Illuminated
Jan 16
Waxing Crescent
Jan 18
First Quarter
Jan 26
Full
Feb 3
Last Quarter
Feb 10
New

Hourly Weather History & Observations

Time (CST) Temp. Windchill Dew Point Humidity Pressure Visibility Wind Dir Wind Speed Gust Speed Precip Events Conditions
12:11 AM 55.4 °F - 55.4 °F 100% 29.95 in 1.0 mi North 6.9 mph - N/A   Mist
12:31 AM 53.6 °F - 53.6 °F 100% 29.95 in 0.8 mi North 4.6 mph - N/A   Mist
12:53 AM 54.0 °F - 53.1 °F 97% 29.96 in 1.0 mi North 8.1 mph - N/A   Mist
1:33 AM 53.6 °F - 51.8 °F 94% 29.96 in 3.0 mi North 8.1 mph - N/A   Overcast
2:01 AM 51.8 °F - 51.8 °F 100% 29.95 in 1.5 mi North 6.9 mph - N/A   Overcast
2:53 AM 51.1 °F - 50.0 °F 96% 29.96 in 2.5 mi North 10.4 mph - N/A   Overcast
3:14 AM 51.8 °F - 50.0 °F 94% 29.96 in 5.0 mi North 9.2 mph - N/A   Overcast
3:43 AM 50.0 °F - 48.2 °F 94% 29.96 in 2.5 mi North 8.1 mph - 0.00 in Rain Light Rain
3:51 AM 50.0 °F - 48.2 °F 94% 29.97 in 4.0 mi NNW 5.8 mph - 0.00 in Rain Light Rain
3:53 AM 50.0 °F - 48.9 °F 96% 29.97 in 4.0 mi North 6.9 mph - 0.00 in Rain Light Rain
4:44 AM 48.2 °F - 46.4 °F 93% 29.97 in 10.0 mi North 8.1 mph - 0.00 in   Overcast
4:53 AM 48.0 °F - 46.9 °F 96% 29.98 in 10.0 mi North 10.4 mph - 0.00 in   Overcast
5:53 AM 48.0 °F - 46.0 °F 93% 29.99 in 10.0 mi North 10.4 mph - N/A   Overcast
6:53 AM 48.0 °F - 46.0 °F 93% 30.00 in 10.0 mi NNE 10.4 mph - N/A   Overcast
7:53 AM 48.0 °F - 46.0 °F 93% 30.03 in 10.0 mi North 9.2 mph - N/A   Overcast
8:53 AM 48.0 °F - 45.0 °F 89% 30.04 in 10.0 mi North 11.5 mph 19.6 mph N/A   Overcast
9:53 AM 48.0 °F - 45.0 °F 89% 30.04 in 10.0 mi North 12.7 mph - N/A   Overcast
10:53 AM 48.9 °F - 45.0 °F 86% 30.03 in 10.0 mi North 10.4 mph - N/A   Overcast
11:53 AM 48.9 °F - 44.1 °F 83% 30.02 in 10.0 mi NNW 9.2 mph - N/A   Overcast
12:53 PM 48.0 °F - 44.1 °F 86% 30.01 in 10.0 mi NNW 8.1 mph - 0.00 in   Overcast
2:53 PM 48.0 °F - 43.0 °F 83% 30.01 in 10.0 mi NNW 8.1 mph - N/A   Overcast
3:53 PM 46.9 °F - 42.1 °F 83% 30.03 in 10.0 mi North 9.2 mph - N/A   Overcast
4:53 PM 46.9 °F - 42.1 °F 83% 30.03 in 10.0 mi North 6.9 mph - N/A   Overcast
5:53 PM 46.0 °F 44.8 °F 43.0 °F 89% 30.06 in 10.0 mi NW 3.5 mph - N/A   Overcast
6:53 PM 46.0 °F 43.9 °F 42.1 °F 86% 30.06 in 10.0 mi Variable 4.6 mph - N/A   Overcast
7:53 PM 45.0 °F 41.8 °F 41.0 °F 86% 30.06 in 10.0 mi WNW 5.8 mph - N/A   Overcast
8:53 PM 44.1 °F 41.5 °F 39.9 °F 85% 30.08 in 10.0 mi NW 4.6 mph - N/A   Overcast
9:53 PM 43.0 °F 38.8 °F 39.9 °F 89% 30.07 in 10.0 mi NW 6.9 mph - N/A   Overcast
10:53 PM 42.1 °F 38.4 °F 39.9 °F 92% 30.08 in 4.0 mi West 5.8 mph - 0.00 in Rain Light Rain
11:53 PM 41.0 °F 37.1 °F 39.0 °F 93% 30.08 in 6.0 mi WNW 5.8 mph - 0.00 in   Overcast